Regional Weather Roundup
Issued by NWS

Home | Current Version | Previous Version | Graphics & Text | Print | Product List | Glossary On
Versions: 1 2 3 4 5 6 7 8 9 10 11 12 13 14 15 16 17 18 19 20 21 22 23 24 25 26 27 28 29 30 31 32 33 34 35 36 37 38 39 40 41 42 43 44 45 46 47 48 49 50
000
ASUS43 KLMK 061702
RWRKY
KENTUCKY REGIONAL WEATHER ROUNDUP
NATIONAL WEATHER SERVICE LOUISVILLE KY
100 PM EDT MON JUL 06 2015

NOTE "FAIR" INDICATES FEW OR NO CLOUDS BELOW 12,000 FEET
WITH NO SIGNIFICANT WEATHER AND/OR OBSTRUCTIONS TO VISIBILITY.

KYZ001>023-026-027-061>063-070>075-061800-
WESTERN AND SOUTH CENTRAL KENTUCKY

CITY           SKY/WX    TMP DP  RH WIND       PRES   REMARKS
PADUCAH        MOSUNNY   83  71  67 SW12      30.07F
HENDERSON      PTSUNNY   84  72  65 SW5       30.05F
OWENSBORO      MOSUNNY   85  74  69 SW12      30.08F HX  92
HOPKINSVILLE   MOSUNNY   84  71  65 SW13      30.11S HX  90
BOWLING GREEN  PTSUNNY   82  70  66 S9        30.13S
GLASGOW        NOT AVBL
$$

KYZ024-025-028>034-038-045-046-053-061800-
NORTH CENTRAL KENTUCKY

CITY           SKY/WX    TMP DP  RH WIND       PRES   REMARKS
LOUISVILLE/SDF MOSUNNY   84  68  58 S9        30.08F
LOUISVILLE/LOU PTSUNNY   83  67  58 S9        30.09F
FORT KNOX      MOSUNNY   83  69  63 S6        30.09F
$$

KYZ035>037-039>044-047>052-055>060-089>105-061800-
NORTHEAST KENTUCKY

CITY           SKY/WX    TMP DP  RH WIND       PRES   REMARKS
LEXINGTON      SUNNY     80  66  62 S8        30.12F
COVINGTON      MOSUNNY   80  65  59 SW6       30.10S
FRANKFORT      SUNNY     81  64  56 SW5       30.10S
$$

KYZ054-064>069-076>088-106>120-061800-
SOUTHEAST KENTUCKY

CITY           SKY/WX    TMP DP  RH WIND       PRES   REMARKS
JACKSON        MOSUNNY   77  67  71 CALM      30.15F
LONDON         MOSUNNY   77  65  66 W8        30.16F
SOMERSET       NOT AVBL
MIDDLESBORO    NOT AVBL
MONTICELLO     MOSUNNY   82  72  72 W9        30.18S
$$




USA.gov is the U.S. government's official web portal to all federal, state and local government web resources and services.